Weather History for KCQX - January, 2013

Change the Weather History Date:

Wednesday, January 30, 2013

  Actual Average Record
Temperature  
Mean Temperature 46 °F -  
Max Temperature 52 °F 35 °F 53 °F (1990)
Min Temperature 39 °F 24 °F 7 °F (1977)
Degree Days  
Heating Degree Days 20    
Moisture  
Dew Point 45 °F    
Average Humidity 94    
Maximum Humidity 100    
Minimum Humidity 87    
Precipitation  
Precipitation 0.07 in - - ()
Sea Level Pressure  
Sea Level Pressure 29.89 in    
Wind  
Wind Speed 10 mph (South)    
Max Wind Speed 17 mph    
Max Gust Speed 31 mph    
Visibility 6 miles    
Events Fog , Rain    
Averages and records for this station are not official NWS values.
T = Trace of Precipitation, MM = Missing Value Source: NWS Daily Summary

Daily Weather History Graph

Daily Weather History Graph

Search for Another Location

Airport or City:

Trip Planner

Search our weather history database for the weather conditions in past years. The results will help you decide how hot, cold, wet, or windy it might be!

Date:

Astronomy

Jan. 30, 2013 Rise Set
Actual Time 6:53 AM EST 4:53 PM EST
Civil Twilight 6:24 AM EST 5:22 PM EST
Nautical Twilight 5:50 AM EST 5:56 PM EST
Astronomical Twilight 5:18 AM EST 6:28 PM EST
Moon 8:52 PM EST (1/30) 8:16 AM EST (1/30)
Length of Visible Light 10h 58m
Length of Day
9h 59m
Waning Gibbous, 88% of the Moon is Illuminated
Jan 30
Waning Gibbous
Feb 3
Last Quarter
Feb 10
New
Feb 17
First Quarter
Feb 25
Full

Hourly Weather History & Observations

Time (EST) Temp. Windchill Dew Point Humidity Pressure Visibility Wind Dir Wind Speed Gust Speed Precip Events Conditions
12:23 AM 39.2 °F 33.6 °F 37.4 °F 93% 30.17 in 10.0 mi SSE 8.1 mph - 0.00 in   Overcast
12:52 AM 39.0 °F 34.8 °F 37.0 °F 93% 30.18 in 5.0 mi SSE 5.8 mph - 0.03 in Rain Rain
1:48 AM 39.2 °F 34.2 °F 37.4 °F 93% 30.16 in 9.0 mi South 6.9 mph - 0.01 in   Overcast
1:52 AM 39.0 °F 34.0 °F 37.0 °F 93% 30.17 in 9.0 mi South 6.9 mph - 0.02 in   Overcast
2:52 AM 39.0 °F 33.4 °F 37.0 °F 93% 30.14 in 10.0 mi SSE 8.1 mph - 0.02 in   Overcast
3:52 AM 39.9 °F 33.9 °F 37.9 °F 93% 30.12 in 10.0 mi SSE 9.2 mph - N/A   Overcast
4:52 AM 41.0 °F 36.4 °F 39.0 °F 93% 30.08 in 10.0 mi SSE 6.9 mph - N/A   Overcast
5:40 AM 42.8 °F 38.6 °F 41.0 °F 93% 30.05 in 10.0 mi SSE 6.9 mph 17.3 mph N/A   Overcast
5:52 AM 42.1 °F 35.7 °F 41.0 °F 96% 30.06 in 10.0 mi SSE 11.5 mph 17.3 mph N/A   Overcast
6:52 AM 43.0 °F 38.2 °F 41.0 °F 93% 30.05 in 10.0 mi South 8.1 mph - N/A   Mostly Cloudy
7:10 AM 42.8 °F 38.0 °F 41.0 °F 93% 30.04 in 10.0 mi South 8.1 mph - N/A   Mostly Cloudy
7:52 AM 44.1 °F 39.0 °F 42.1 °F 93% 30.03 in 10.0 mi South 9.2 mph - N/A   Overcast
8:52 AM 45.0 °F 41.2 °F 43.0 °F 93% 29.99 in 10.0 mi SSW 6.9 mph - N/A   Overcast
9:16 AM 46.4 °F 41.5 °F 42.8 °F 87% 29.98 in 10.0 mi South 10.4 mph 18.4 mph N/A   Partly Cloudy
9:52 AM 48.9 °F - 46.0 °F 90% 29.96 in 10.0 mi South 12.7 mph 21.9 mph N/A   Clear
10:52 AM 50.0 °F - 46.9 °F 89% 29.94 in 10.0 mi South 12.7 mph 25.3 mph N/A   Clear
11:34 AM 50.0 °F - 46.4 °F 87% 29.89 in 8.0 mi South 12.7 mph 24.2 mph N/A   Scattered Clouds
11:43 AM 48.2 °F - 46.4 °F 93% 29.88 in 6.0 mi South 13.8 mph 24.2 mph N/A   Mostly Cloudy
11:52 AM 48.9 °F - 46.9 °F 93% 29.89 in 5.0 mi SSW 12.7 mph 24.2 mph N/A   Mostly Cloudy
12:52 PM 50.0 °F - 48.0 °F 93% 29.83 in 5.0 mi South 10.4 mph 21.9 mph N/A   Overcast
1:52 PM 50.0 °F - 48.0 °F 93% 29.80 in 3.0 mi SSW 12.7 mph 28.8 mph N/A   Overcast
2:52 PM 50.0 °F - 48.0 °F 93% 29.79 in 5.0 mi SSW 13.8 mph 28.8 mph N/A   Mostly Cloudy
3:12 PM 50.0 °F - 48.2 °F 94% 29.77 in 1.8 mi SSW 16.1 mph 28.8 mph N/A   Overcast
3:23 PM 50.0 °F - 48.2 °F 94% 29.76 in 0.5 mi SSW 15.0 mph 27.6 mph N/A Fog Fog
3:30 PM 50.0 °F - 48.2 °F 94% 29.77 in 0.2 mi SSW 15.0 mph 26.5 mph N/A Fog Fog
3:52 PM 48.0 °F - 46.9 °F 96% 29.77 in 0.2 mi SSW 16.1 mph 27.6 mph N/A Fog Fog
4:52 PM 50.0 °F - 48.9 °F 96% 29.75 in 0.2 mi SSW 12.7 mph 26.5 mph N/A Fog Fog
5:52 PM 48.0 °F - 46.9 °F 96% 29.77 in 0.2 mi SW 12.7 mph 20.7 mph N/A Fog Fog
6:52 PM 48.9 °F - 48.9 °F 100% 29.75 in 0.2 mi SSW 12.7 mph 21.9 mph N/A Fog Fog
7:03 PM 50.0 °F - 48.2 °F 94% 29.74 in 0.5 mi SSW 11.5 mph 26.5 mph N/A Fog Fog
7:52 PM 50.0 °F - 48.9 °F 96% 29.73 in 0.5 mi SSW 13.8 mph 23.0 mph N/A Fog Fog
8:30 PM 48.2 °F - 48.2 °F 100% 29.71 in 1.2 mi SSW 10.4 mph 21.9 mph N/A   Overcast
8:41 PM 50.0 °F - 48.2 °F 94% 29.70 in 3.0 mi SSW 12.7 mph 28.8 mph N/A   Overcast
8:52 PM 52.0 °F - 51.1 °F 97% 29.70 in 5.0 mi SSW 12.7 mph 29.9 mph N/A   Overcast
9:52 PM 51.1 °F - 51.1 °F 100% 29.66 in 5.0 mi SSW 17.3 mph 31.1 mph N/A   Overcast
10:52 PM 52.0 °F - 51.1 °F 97% 29.63 in 6.0 mi South 17.3 mph 31.1 mph N/A   Overcast
11:19 PM 51.8 °F - 51.8 °F 100% 29.63 in 6.0 mi South 13.8 mph 28.8 mph N/A   Overcast
11:52 PM 51.1 °F - 50.0 °F 96% 29.62 in 6.0 mi SSW 12.7 mph 26.5 mph N/A   Overcast